Regional Weather Roundup
Issued by NWS

Home | Current Version | Previous Version | Graphics & Text | Print | Product List | Glossary On
Versions: 1 2 3 4 5 6 7 8 9 10 11 12 13 14 15 16 17 18 19 20 21 22 23 24 25 26 27 28 29 30 31 32 33 34 35 36 37 38 39 40 41 42 43 44 45 46 47 48 49 50
938
ASUS43 KLSX 022257
RWRMO

WEATHER SUMMARY FOR MISSOURI
NATIONAL WEATHER SERVICE SPRINGFIELD MO
500 PM CST FRI DEC 02 2016

NOTE: "FAIR" INDICATES FEW OR NO CLOUDS BELOW 12,000 FEET WITH NO
       SIGNIFICANT WEATHER AND/OR OBSTRUCTIONS TO VISIBILITY.
       CURRENT SKY AND/OR WEATHER CONDITIONS ARE NOT AVAILABLE FOR
       CHILLICOTHE AND FARMINGTON.

MOZ001>031-035>038-043-044-053-054-030000-
...NORTHERN AND WESTERN MISSOURI...

CITY           SKY/WX    TMP DP  RH WIND       PRES   REMARKS
KANSAS CTY INT PTCLDY    43  24  47 N5        30.29R
LEE`S SUMMIT   CLEAR     46  26  45 NE3       30.29R
ST JOSEPH      PTCLDY    40  27  59 NW6       30.31R
CHILLICOTHE      N/A     41  29  62 CALM      30.30S

$$
MOZ066>068-077>081-088>096-101>105-030000-
...SOUTHWEST MISSOURI...

CITY           SKY/WX    TMP DP  RH WIND       PRES   REMARKS
SPRINGFIELD    PTCLDY    51  23  33 NE8       30.23R
JOPLIN         CLOUDY    53  28  38 E7        30.23R
BRANSON        CLOUDY    52  32  46 E7        30.24R

$$
MOZ032>034-039>042-045>050-055>058-069>072-030000-
...CENTRAL MISSOURI...

CITY           SKY/WX    TMP DP  RH WIND       PRES   REMARKS
COLUMBIA       NOT AVBL
JEFFERSON CITY CLEAR     47  26  44 NW3       30.29S
ROLLA          CLEAR     42  27  55 CALM      30.26S
SEDALIA        PTCLDY    45  26  47 N5        30.30R
WARRENSBURG    CLEAR     46  27  46 CALM      30.28S

$$
MOZ051-052-059>065-030000-
...EAST CENTRAL MISSOURI...

CITY           SKY/WX    TMP DP  RH WIND       PRES   REMARKS
ST LOUIS INTL  PTCLDY    44  28  53 NE6       30.30R

$$
MOZ072>076-082>087-097>100-106>115-030000-
...SOUTH CENTRAL AND SOUTHEAST MISSOURI...

CITY           SKY/WX    TMP DP  RH WIND       PRES   REMARKS
CAPE GIRARDEAU CLEAR     45  31  58 E3        30.29S
POPLAR BLUFF   PTCLDY    46  33  60 SE3       30.27F
WEST PLAINS    PTCLDY    50  28  42 E3        30.25F

$$



USA.gov is the U.S. government's official web portal to all federal, state and local government web resources and services.